Weather in Verkhotulye

Russia / Kirov Oblast     57°46′15″N   48°03′44″E
temp.,
°C
wind,
m/s
gust,
m/s
humid.,
%
clouds,
%
prec.,
mm/h
press.,
hPa
HPBL,
m
25 june, sat
sat2500:00+14wnw228345 0.0 101225
03:00+15nw27791 0.0 1013168
06:00+17nw310730 0.0 1013371
09:00+22nnw58520 0.0 10131681
12:00+23nnw610380 0.0 10132117
15:00+24nnw69362 0.0 10132349
18:00+22nnw59480 0.0 10131523
21:00+15nnw310680 0.0 1015275
26 june, sun
sun2600:00+13nnw413680 0.0 1017404
03:00+9nnw37820 0.0 1018138
06:00+13nw411631 0.0 1019493
09:00+18nnw610420 0.0 10181389
12:00+20nnw610335 0.0 10181790
15:00+21n69335 0.0 10181905
18:00+20n37485 0.0 1018960
21:00+14nw11725 0.0 101811
27 june, mon
mon2700:00+13sw227698 0.0 101738
03:00+13sw3107699 0.0 1015204
06:00+16wsw3109419 0.7 1013331
09:00+23nw59667 0.9 1011985
12:00+22n7106791 0.8 10131520
15:00+20n794288 0.9 10151519
18:00+17n41052100 0.0 10161440
21:00+12n277159 0.0 1017144
28 june, tue
tue2800:00+8ne23805 0.0 101954
03:00+9n48654 0.0 1020803
06:00+8n586510 0.0 1021827
09:00+12n58486 0.0 10211563
12:00+15n58375 0.0 10211825
15:00+17n58355 0.0 10201982
18:00+16n49455 0.0 10201982
21:00+10nw376823 0.0 1021139
29 june, wed
wed2900:00+8nnw310705 0.0 1022201
03:00+6nnw27725 0.0 1023133
06:00+11n39551 0.0 1023319
09:00+16n57370 0.0 10221236
12:00+19n573365 0.0 10221503
15:00+20nnw473032 0.0 10201674
18:00+18nw384569 0.0 1019608
21:00+12wnw386991 0.0 1019148